Terminal Aerodrome Forecast
Issued by NWS

Home | Current Version | Previous Version | Text Only | Print | Product List | Glossary On
Versions: 1 2 3 4 5 6 7 8 9 10 11 12 13 14 15 16 17 18 19 20
000
FTUS42 KMLB 191700
TAFSFB
TAF
KSFB 191725Z 1918/2018 26011KT P6SM FEW025 SCT030 OVC040
     FM200000 29008KT P6SM SCT012 BKN020
     FM201400 33012KT P6SM SCT040 BKN080
      TEMPO 2014/2018 BKN040=

USA.gov is the U.S. government's official web portal to all federal, state and local government web resources and services.